| time (UTC) | temp F | wind direction | speed MPH | gust MPH | rain 1hr in | rain 24hr in | rain mn in | humidity % | barometer mb |
| 20260510010021 | 88 | 144 | 5.0 | 14.0 | 0.00 | 0.00 | 0.00 | 37 | 1005.1 |
| 20260510004521 | 89 | 134 | 6.0 | 12.0 | 0.00 | 0.00 | 0.00 | 34 | 1005.1 |
| 20260510003020 | 90 | 146 | 7.0 | 12.0 | 0.00 | 0.00 | 0.00 | 33 | 1004.9 |
| 20260510001518 | 91 | 155 | 5.0 | 14.0 | 0.00 | 0.00 | 0.00 | 30 | 1005.0 |
| 20260510000022 | 90 | 211 | 5.0 | 14.0 | 0.00 | 0.00 | 0.00 | 30 | 1005.1 |
| 20260509234517 | 90 | 144 | 8.0 | 15.0 | 0.00 | 0.00 | 0.00 | 34 | 1005.0 |
| 20260509233016 | 91 | 180 | 7.0 | 13.0 | 0.00 | 0.00 | 0.00 | 32 | 1005.1 |
| 20260509231514 | 91 | 199 | 5.0 | 13.0 | 0.00 | 0.00 | 0.00 | 33 | 1005.1 |
| 20260509230015 | 91 | 130 | 11.0 | 15.0 | 0.00 | 0.00 | 0.00 | 32 | 1005.1 |
| 20260509224513 | 91 | 147 | 6.0 | 15.0 | 0.00 | 0.00 | 0.00 | 34 | 1005.2 |
| 20260509223018 | 91 | 155 | 5.0 | 18.0 | 0.00 | 0.00 | 0.00 | 33 | 1005.2 |
| 20260509221509 | 91 | 131 | 7.0 | 14.0 | 0.00 | 0.00 | 0.00 | 32 | 1005.2 |
| 20260509220009 | 91 | 194 | 9.0 | 20.0 | 0.00 | 0.00 | 0.00 | 32 | 1005.4 |
| 20260509214506 | 91 | 180 | 6.0 | 15.0 | 0.00 | 0.00 | 0.00 | 33 | 1005.6 |
| 20260509213005 | 91 | 133 | 8.0 | 17.0 | 0.00 | 0.00 | 0.00 | 32 | 1005.7 |
| 20260509211507 | 91 | 183 | 3.0 | 14.0 | 0.00 | 0.00 | 0.00 | 32 | 1005.9 |
| 20260509210109 | 91 | 84 | 5.0 | 14.0 | 0.00 | 0.00 | 0.00 | 34 | 1006.1 |
| 20260509204557 | 91 | 190 | 7.0 | 25.0 | 0.00 | 0.00 | 0.00 | 36 | 1006.4 |
| 20260509203055 | 90 | 153 | 6.0 | 14.0 | 0.00 | 0.00 | 0.00 | 38 | 1006.7 |
| 20260509201552 | 90 | 224 | 5.0 | 14.0 | 0.00 | 0.00 | 0.00 | 38 | 1007.0 |
| 20260509200054 | 89 | 167 | 5.0 | 12.0 | 0.00 | 0.00 | 0.00 | 40 | 1007.2 |
| 20260509194547 | 89 | 206 | 4.0 | 15.0 | 0.00 | 0.00 | 0.00 | 41 | 1007.3 |
| 20260509193046 | 88 | 129 | 7.0 | 18.0 | 0.00 | 0.00 | 0.00 | 41 | 1007.5 |
| 20260509191543 | 88 | 146 | 13.0 | 17.0 | 0.00 | 0.00 | 0.00 | 41 | 1007.7 |
| 20260509190047 | 88 | 155 | 8.0 | 15.0 | 0.00 | 0.00 | 0.00 | 41 | 1007.9 |
| 20260509184538 | 87 | 170 | 3.0 | 15.0 | 0.00 | 0.00 | 0.00 | 44 | 1008.1 |
| 20260509183036 | 86 | 115 | 9.0 | 18.0 | 0.00 | 0.00 | 0.00 | 42 | 1008.3 |
| 20260509181533 | 86 | 168 | 7.0 | 14.0 | 0.00 | 0.00 | 0.00 | 47 | 1008.7 |
| 20260509180029 | 85 | 115 | 12.0 | 16.0 | 0.00 | 0.00 | 0.00 | 49 | 1008.9 |
| 20260509174527 | 84 | 165 | 10.0 | 17.0 | 0.00 | 0.00 | 0.00 | 49 | 1009.1 |
| 20260509173051 | 84 | 157 | 8.0 | 17.0 | 0.00 | 0.00 | 0.00 | 50 | 1009.4 |
| 20260509171527 | 83 | 186 | 8.0 | 16.0 | 0.00 | 0.00 | 0.00 | 53 | 1009.6 |
| 20260509170017 | 83 | 157 | 7.0 | 14.0 | 0.00 | 0.00 | 0.00 | 53 | 1009.7 |
| 20260509164515 | 82 | 135 | 4.0 | 14.0 | 0.00 | 0.00 | 0.00 | 56 | 1009.7 |
| 20260509163015 | 81 | 155 | 8.0 | 15.0 | 0.00 | 0.00 | 0.00 | 58 | 1009.8 |
| 20260509161504 | 81 | 163 | 6.0 | 13.0 | 0.00 | 0.00 | 0.00 | 59 | 1009.9 |
| 20260509154557 | 79 | 148 | 7.0 | 11.0 | 0.00 | 0.00 | 0.00 | 64 | 1010.0 |
| 20260509153054 | 78 | 234 | 3.0 | 9.0 | 0.00 | 0.00 | 0.00 | 69 | 1010.1 |
| 20260509151605 | 77 | 197 | 6.0 | 10.0 | 0.00 | 0.00 | 0.00 | 71 | 1010.2 |
| 20260509150049 | 76 | 209 | 5.0 | 9.0 | 0.00 | 0.00 | 0.00 | 75 | 1010.2 |
| 20260509144539 | 74 | 205 | 0.0 | 2.0 | 0.00 | 0.00 | 0.00 | 82 | 1010.4 |
| 20260509143037 | 72 | 204 | 1.0 | 3.0 | 0.00 | 0.00 | 0.00 | 84 | 1010.6 |
| 20260509141531 | 70 | 204 | 1.0 | 3.0 | 0.00 | 0.00 | 0.00 | 86 | 1010.8 |
| 20260509140026 | 69 | 200 | 2.0 | 5.0 | 0.00 | 0.00 | 0.00 | 90 | 1011.0 |
| 20260509134523 | 67 | 93 | 0.0 | 3.0 | 0.00 | 0.00 | 0.00 | 93 | 1011.1 |
| 20260509133018 | 65 | 92 | 0.0 | 4.0 | 0.00 | 0.00 | 0.00 | 94 | 1011.2 |
| 20260509131513 | 64 | 86 | 0.0 | 3.0 | 0.00 | 0.00 | 0.00 | 94 | 1011.0 |
| 20260509130027 | 62 | 86 | 0.0 | 2.0 | 0.00 | 0.00 | 0.00 | 94 | 1010.9 |
| 20260509124520 | 61 | 86 | 0.0 | 1.0 | 0.00 | 0.00 | 0.00 | 94 | 1010.8 |
| 20260509123001 | 60 | 87 | 0.0 | 2.0 | 0.00 | 0.00 | 0.00 | 93 | 1010.7 |
| 20260509121557 | 59 | 88 | 0.0 | 1.0 | 0.00 | 0.00 | 0.00 | 93 | 1010.4 |
| 20260509120055 | 60 | 88 | 0.0 | 3.0 | 0.00 | 0.00 | 0.00 | 93 | 1010.1 |
| 20260509114625 | 60 | 88 | 0.0 | 2.0 | 0.00 | 0.00 | 0.00 | 93 | 1010.0 |
| 20260509113105 | 61 | 88 | 0.0 | 2.0 | 0.00 | 0.00 | 0.00 | 92 | 1009.7 |
| 20260509111548 | 61 | 88 | 2.0 | 4.0 | 0.00 | 0.00 | 0.00 | 93 | 1009.7 |
| 20260509110056 | 62 | 88 | 0.0 | 4.0 | 0.00 | 0.00 | 0.00 | 93 | 1009.5 |
| 20260509104544 | 62 | 72 | 4.0 | 6.0 | 0.00 | 0.00 | 0.00 | 93 | 1009.4 |
| 20260509103047 | 63 | 178 | 0.0 | 4.0 | 0.00 | 0.00 | 0.00 | 92 | 1009.3 |
| 20260509101555 | 63 | 155 | 4.0 | 8.0 | 0.00 | 0.00 | 0.00 | 92 | 1009.2 |
| 20260509100042 | 63 | 112 | 5.0 | 12.0 | 0.00 | 0.00 | 0.00 | 92 | 1009.6 |
| 20260509094540 | 63 | 95 | 5.0 | 10.0 | 0.00 | 0.00 | 0.00 | 91 | 1009.7 |
| 20260509093038 | 63 | 113 | 3.0 | 7.0 | 0.00 | 0.00 | 0.00 | 90 | 1009.8 |
| 20260509091542 | 63 | 120 | 3.0 | 6.0 | 0.00 | 0.00 | 0.00 | 89 | 1009.6 |
| 20260509090041 | 63 | 122 | 4.0 | 8.0 | 0.00 | 0.00 | 0.00 | 89 | 1009.6 |
| 20260509084534 | 62 | 113 | 3.0 | 6.0 | 0.00 | 0.00 | 0.00 | 88 | 1009.4 |
| 20260509083033 | 63 | 111 | 3.0 | 6.0 | 0.00 | 0.00 | 0.00 | 87 | 1009.7 |
| 20260509081530 | 63 | 111 | 0.0 | 6.0 | 0.00 | 0.00 | 0.00 | 87 | 1009.4 |
| 20260509080027 | 64 | 165 | 2.0 | 4.0 | 0.00 | 0.00 | 0.00 | 86 | 1009.4 |
| 20260509074527 | 64 | 165 | 4.0 | 7.0 | 0.00 | 0.00 | 0.00 | 86 | 1009.3 |
| 20260509073026 | 65 | 194 | 2.0 | 8.0 | 0.00 | 0.00 | 0.00 | 86 | 1009.4 |
| 20260509071524 | 64 | 192 | 6.0 | 9.0 | 0.00 | 0.00 | 0.00 | 87 | 1009.2 |
| 20260509070023 | 64 | 244 | 2.0 | 7.0 | 0.00 | 0.00 | 0.00 | 86 | 1009.5 |
| 20260509064522 | 65 | 252 | 1.0 | 5.0 | 0.00 | 0.00 | 0.00 | 86 | 1009.6 |
| 20260509063032 | 66 | 17 | 1.0 | 4.0 | 0.00 | 0.00 | 0.00 | 85 | 1009.3 |
| 20260509061521 | 65 | 18 | 2.0 | 17.0 | 0.00 | 0.00 | 0.00 | 86 | 1009.0 |
| 20260509060016 | 65 | 177 | 0.0 | 0.0 | 0.00 | 0.00 | 0.00 | 83 | 1008.4 |
| 20260509054514 | 66 | 177 | 0.0 | 3.0 | 0.00 | 0.00 | 0.00 | 82 | 1008.5 |
| 20260509053014 | 67 | 177 | 1.0 | 4.0 | 0.00 | 0.00 | 0.00 | 81 | 1008.4 |
| 20260509051508 | 68 | 177 | 1.0 | 2.0 | 0.00 | 0.00 | 0.00 | 80 | 1008.3 |
| 20260509050010 | 69 | 177 | 0.0 | 0.0 | 0.00 | 0.00 | 0.00 | 78 | 1008.2 |
| 20260509044503 | 69 | 177 | 0.0 | 0.0 | 0.00 | 0.00 | 0.00 | 77 | 1008.1 |
| 20260509043003 | 71 | 177 | 0.0 | 3.0 | 0.00 | 0.00 | 0.00 | 75 | 1008.2 |
| 20260509041502 | 71 | 177 | 2.0 | 6.0 | 0.00 | 0.00 | 0.00 | 75 | 1008.2 |
| 20260509040002 | 71 | 175 | 2.0 | 6.0 | 0.00 | 0.00 | 0.00 | 76 | 1008.3 |
| 20260509034500 | 71 | 156 | 3.0 | 7.0 | 0.00 | 0.00 | 0.00 | 76 | 1008.4 |
| 20260509033102 | 71 | 154 | 3.0 | 6.0 | 0.00 | 0.00 | 0.00 | 76 | 1008.5 |
| 20260509031610 | 71 | 154 | 3.0 | 8.0 | 0.00 | 0.00 | 0.00 | 75 | 1008.2 |
| 20260509030106 | 71 | 152 | 2.0 | 6.0 | 0.00 | 0.00 | 0.00 | 75 | 1008.1 |
| 20260509024558 | 72 | 152 | 3.0 | 7.0 | 0.00 | 0.00 | 0.00 | 74 | 1007.8 |
| 20260509023111 | 73 | 151 | 3.0 | 7.0 | 0.00 | 0.00 | 0.00 | 72 | 1007.7 |
| 20260509021556 | 73 | 150 | 3.0 | 7.0 | 0.00 | 0.00 | 0.00 | 71 | 1007.6 |
| 20260509020058 | 74 | 151 | 3.0 | 8.0 | 0.00 | 0.00 | 0.00 | 70 | 1007.4 |
| 20260509014556 | 74 | 152 | 4.0 | 8.0 | 0.00 | 0.00 | 0.00 | 69 | 1007.2 |
| 20260509013055 | 75 | 149 | 4.0 | 8.0 | 0.00 | 0.00 | 0.00 | 68 | 1007.0 |
| 20260509011558 | 76 | 153 | 4.0 | 7.0 | 0.00 | 0.00 | 0.00 | 67 | 1006.9 |